Temp
-11 -11 -11 -11 -11 -11 -11 -11 -11 -10 -10 -11 -11 -10 -10 -11 -11 -11 -11 -11 -12 -12 -12 -12 -12 -12 -12 -13 -12 -12 -12 -12 -12 -12 -12 -12 -11 -11 -11 -12 -12 -12 -12
-11 -11 -10 -11 -11 -11 -11 -11 -11 -10 -11 -11 -11 -10 -11 -11 -11 -11 -11 -11 -12 -12 -12 -12 -12 -12 -12 -12 -13 -12 -12 -12 -12 -12 -12 -12 -12 -12 -12 -12 -12 -12 -12
-11 -11 -11 -11 -11 -11 -11 -11 -11 -11 -11 -11 -11 -11 -11 -11 -11 -11 -11 -12 -12 -12 -12 -12 -13 -12 -12 -12 -12 -12 -12 -12 -12 -12 -12 -12 -12 -12 -12 -12 -12 -12 -12
-11 -11 -11 -11 -11 -11 -11 -11 -11 -11 -11 -11 -11 -11 -11 -11 -11 -12 -12 -12 -12 -12 -12 -12 -13 -12 -12 -12 -12 -12 -12 -12 -12 -12 -12 -12 -12 -12 -12 -13 -12 -12 -12
-12 -12 -12 -11 -11 -11 -11 -11 -11 -12 -12 -12 -11 -11 -11 -11 -12 -12 -12 -12 -12 -13 -13 -12 -12 -12 -12 -12 -12 -12 -12 -12 -12 -12 -12 -12 -12 -12 -12 -12 -13 -12 -12
-12 -12 -12 -11 -11 -11 -11 -11 -12 -12 -12 -12 -12 -12 -12 -12 -12 -12 -12 -12 -13 -13 -13 -13 -13 -13 -13 -13 -13 -13 -13 -13 -13 -13 -13 -13 -13 -12 -12 -13 -13 -13 -13
-12 -12 -12 -12 -12 -11 -12 -12 -12 -12 -12 -12 -12 -12 -12 -12 -12 -12 -12 -12 -13 -13 -13 -13 -13 -13 -13 -13 -13 -13 -13 -13 -13 -13 -13 -13 -13 -13 -13 -13 -13 -13 -13
-12 -12 -12 -12 -11 -11 -12 -12 -12 -12 -12 -12 -12 -13 -13 -13 -13 -13 -13 -13 -13 -13 -13 -13 -13 -13 -13 -13 -13 -13 -13 -13 -13 -13 -13 -13 -13 -13 -13 -13 -13 -13 -13
-12 -12 -12 -12 -12 -12 -12 -12 -12 -12 -12 -13 -13 -13 -13 -13 -13 -13 -14 -13 -13 -13 -13 -13 -13 -13 -13 -13 -14 -14 -14 -14 -14 -14 -14 -14 -14 -14 -14 -14 -14 -14 -14
-12 -12 -12 -12 -12 -12 -12 -12 -13 -13 -13 -13 -13 -13 -13 -13 -13 -14 -14 -14 -14 -14 -13 -13 -13 -13 -14 -14 -14 -14 -14 -14 -14 -14 -14 -14 -14 -14 -14 -14 -14 -14 -14
-12 -12 -12 -12 -13 -13 -13 -13 -13 -14 -13 -13 -13 -13 -14 -14 -14 -14 -14 -14 -14 -14 -14 -14 -14 -14 -14 -14 -14 -14 -15 -15 -15 -15 -14 -14 -14 -14 -14 -15 -15 -15 -15
-13 -13 -13 -13 -13 -13 -13 -13 -13 -13 -14 -14 -14 -14 -14 -14 -14 -14 -14 -14 -14 -14 -14 -14 -14 -14 -15 -15 -15 -15 -15 -15 -15 -15 -15 -15 -15 -15 -15 -15 -15 -16 -15
-14 -14 -13 -13 -13 -13 -13 -14 -13 -14 -14 -14 -14 -14 -14 -14 -14 -14 -14 -14 -14 -14 -14 -15 -15 -15 -15 -15 -15 -15 -16 -16 -16 -16 -16 -16 -16 -16 -16 -16 -16 -16 -16
-14 -14 -14 -14 -14 -14 -14 -14 -14 -14 -14 -14 -14 -14 -14 -14 -15 -15 -15 -15 -15 -15 -15 -15 -16 -16 -16 -16 -17 -17 -16 -17 -17 -17 -17 -17 -17 -17 -17 -17 -17 -17 -17
-14 -14 -14 -14 -14 -14 -14 -14 -14 -14 -14 -15 -15 -15 -15 -15 -15 -15 -16 -16 -16 -16 -16 -17 -17 -17 -17 -17 -18 -17 -17 -18 -18 -18 -18 -19 -19 -19 -19 -18 -18 -18 -18
-14 -14 -14 -14 -14 -14 -14 -14 -15 -15 -15 -15 -15 -15 -16 -16 -16 -17 -17 -17 -17 -17 -17 -17 -17 -18 -18 -18 -19 -19 -19 -19 -19 -19 -20 -20 -20 -20 -20 -20 -20 -19 -19
-15 -15 -15 -15 -14 -15 -15 -15 -15 -15 -16 -16 -16 -17 -17 -17 -17 -17 -17 -18 -18 -18 -19 -19 -19 -19 -19 -20 -20 -20 -20 -20 -20 -20 -20 -20 -20 -20 -20 -20 -21 -20 -20
-15 -15 -15 -15 -15 -15 -15 -16 -16 -16 -16 -17 -17 -17 -17 -18 -18 -19 -19 -19 -19 -20 -20 -20 -21 -21 -21 -21 -21 -21 -21 -21 -21 -21 -21 -21 -21 -21 -21 -21 -21 -21 -21
-15 -15 -16 -16 -16 -16 -17 -17 -17 -17 -17 -17 -18 -18 -18 -19 -19 -19 -20 -20 -21 -21 -21 -21 -21 -21 -21 -21 -21 -21 -21 -21 -21 -22 -22 -22 -22 -22 -23 -22 -22 -22 -22
-16 -16 -17 -17 -17 -17 -17 -17 -17 -18 -18 -18 -19 -19 -19 -19 -20 -20 -20 -20 -20 -21 -21 -21 -22 -22 -22 -23 -23 -23 -23 -23 -23 -24 -24 -24 -24 -24 -24 -24 -24 -24 -24
-17 -17 -18 -18 -18 -18 -18 -18 -18 -18 -19 -19 -20 -20 -20 -20 -21 -21 -22 -22 -22 -22 -23 -23 -23 -24 -24 -24 -25 -25 -26 -26 -26 -26 -26 -26 -26 -27 -26 -27 -27 -27 -27
-18 -18 -18 -18 -19 -19 -19 -19 -20 -20 -20 -20 -21 -22 -22 -23 -23 -23 -23 -23 -24 -24 -24 -24 -25 -25 -26 -27 -28 -28 -29 -29 -29 -29 -29 -28 -28 -28 -28 -28 -28 -28 -28
-19 -20 -20 -20 -20 -20 -21 -21 -22 -22 -22 -22 -23 -23 -23 -23 -24 -24 -24 -24 -25 -25 -25 -26 -27 -28 -29 -29 -29 -29 -29 -30 -30 -30 -30 -30 -30 -30 -30 -30 -30 -29 -29
-20 -21 -21 -22 -23 -23 -23 -23 -23 -23 -23 -23 -23 -23 -24 -24 -25 -25 -25 -26 -27 -28 -29 -29 -29 -29 -29 -30 -30 -31 -31 -31 -32 -33 -33 -33 -33 -33 -33 -32 -32 -32 -32
-23 -23 -23 -23 -24 -24 -24 -24 -23 -23 -23 -23 -24 -25 -25 -25 -26 -27 -28 -29 -29 -29 -30 -30 -31 -31 -31 -32 -32 -32 -32 -33 -34 -35 -35 -35 -35 -35 -34 -34 -33 -33 -33
-24 -24 -24 -24 -24 -24 -24 -24 -24 -24 -25 -25 -25 -26 -27 -28 -29 -29 -29 -30 -30 -31 -32 -32 -33 -32 -32 -32 -32 -33 -34 -35 -35 -35 -35 -35 -35 -35 -35 -34 -34 -34 -34
Height
5814 5816 5817 5817 5817 5815 5814 5813 5811 5810 5807 5804 5802 5799 5796 5794 5791 5788 5785 5781 5778 5775 5772 5768 5765 5761 5757 5754 5751 5748 5746 5744 5741 5739 5737 5735 5733 5731 5729 5726 5724 5722 5720
5808 5810 5810 5810 5809 5807 5806 5805 5803 5801 5799 5796 5794 5791 5789 5787 5784 5782 5778 5775 5772 5770 5766 5763 5760 5757 5753 5750 5747 5744 5742 5740 5738 5736 5734 5732 5730 5728 5725 5722 5720 5718 5716
5802 5803 5802 5801 5801 5800 5798 5796 5795 5793 5790 5788 5786 5784 5782 5780 5777 5775 5772 5769 5766 5764 5761 5758 5755 5752 5749 5746 5743 5741 5739 5736 5734 5732 5730 5728 5726 5723 5721 5718 5716 5713 5712
5795 5795 5794 5793 5792 5790 5789 5787 5785 5783 5781 5780 5778 5776 5774 5772 5770 5767 5765 5763 5760 5757 5755 5753 5750 5747 5744 5742 5739 5737 5735 5732 5730 5727 5725 5723 5721 5719 5717 5714 5711 5709 5707
5787 5787 5786 5785 5783 5781 5779 5778 5776 5774 5773 5772 5770 5768 5766 5764 5762 5760 5758 5755 5753 5751 5748 5746 5744 5741 5738 5736 5734 5732 5729 5727 5725 5722 5720 5718 5716 5714 5712 5710 5708 5704 5703
5779 5779 5777 5775 5774 5772 5770 5768 5767 5766 5765 5763 5761 5759 5757 5755 5754 5752 5750 5748 5745 5742 5740 5739 5737 5734 5732 5730 5728 5725 5723 5721 5718 5716 5714 5712 5710 5708 5706 5704 5702 5701 5698
5770 5769 5767 5766 5765 5764 5762 5760 5759 5758 5756 5754 5752 5750 5749 5747 5745 5743 5741 5739 5737 5734 5732 5731 5729 5726 5724 5722 5720 5718 5715 5713 5711 5709 5707 5704 5702 5700 5698 5697 5695 5694 5692
5760 5759 5759 5758 5756 5754 5753 5751 5750 5749 5747 5746 5743 5742 5740 5738 5736 5734 5732 5730 5728 5726 5724 5722 5720 5718 5716 5713 5711 5709 5706 5704 5702 5700 5698 5696 5694 5692 5689 5688 5687 5685 5684
5751 5750 5750 5748 5747 5745 5744 5742 5741 5739 5738 5736 5734 5732 5730 5729 5727 5725 5723 5720 5718 5717 5715 5712 5709 5708 5705 5703 5701 5698 5696 5694 5692 5689 5687 5685 5683 5681 5679 5678 5676 5676 5675
5742 5741 5740 5738 5737 5736 5734 5733 5731 5729 5727 5726 5724 5722 5719 5718 5717 5714 5711 5709 5707 5705 5703 5700 5698 5695 5693 5691 5689 5687 5684 5682 5680 5677 5675 5673 5671 5669 5668 5666 5665 5663 5662
5731 5730 5728 5727 5726 5725 5724 5723 5721 5719 5717 5715 5713 5711 5709 5707 5705 5702 5699 5696 5694 5692 5690 5687 5685 5683 5680 5678 5676 5673 5671 5668 5666 5664 5662 5659 5656 5655 5653 5653 5651 5649 5648
5720 5719 5718 5716 5715 5714 5712 5711 5709 5708 5706 5704 5701 5699 5696 5694 5691 5689 5686 5683 5681 5679 5676 5673 5670 5668 5665 5662 5660 5657 5655 5653 5650 5647 5645 5642 5640 5638 5636 5635 5633 5633 5632
5710 5708 5707 5706 5704 5702 5701 5699 5697 5695 5693 5691 5689 5686 5683 5680 5678 5675 5672 5669 5667 5664 5661 5658 5655 5652 5649 5646 5643 5640 5637 5635 5632 5629 5627 5624 5622 5619 5617 5616 5615 5615 5614
5698 5697 5695 5694 5692 5690 5688 5686 5684 5682 5680 5677 5674 5672 5668 5665 5662 5659 5656 5653 5651 5647 5644 5641 5637 5634 5631 5627 5624 5621 5619 5616 5612 5609 5607 5605 5602 5600 5598 5598 5597 5595 5594
5686 5684 5682 5681 5679 5677 5675 5673 5670 5668 5665 5662 5659 5656 5652 5649 5646 5643 5640 5637 5633 5629 5626 5622 5619 5615 5611 5607 5603 5600 5598 5595 5592 5589 5586 5584 5581 5579 5577 5576 5576 5575 5575
5671 5670 5668 5667 5665 5662 5660 5657 5654 5651 5649 5646 5642 5639 5636 5633 5629 5626 5622 5618 5614 5610 5607 5603 5599 5594 5590 5585 5581 5578 5576 5573 5570 5567 5564 5561 5560 5558 5555 5553 5553 5553 5553
5657 5655 5653 5651 5649 5646 5643 5640 5638 5635 5632 5629 5626 5623 5620 5616 5612 5607 5603 5598 5593 5589 5584 5580 5576 5572 5567 5562 5558 5555 5552 5550 5547 5543 5540 5538 5536 5533 5532 5531 5530 5529 5528
5642 5640 5638 5635 5632 5630 5627 5625 5622 5619 5616 5613 5609 5605 5601 5597 5592 5587 5582 5577 5573 5568 5563 5559 5553 5550 5545 5539 5534 5530 5527 5524 5521 5517 5514 5511 5510 5507 5503 5503 5504 5503 5504
5626 5624 5622 5619 5617 5614 5611 5609 5606 5603 5599 5595 5591 5586 5582 5577 5572 5567 5562 5557 5552 5547 5542 5537 5532 5526 5522 5516 5510 5504 5500 5496 5493 5490 5486 5482 5480 5478 5473 5471 5472 5474 5476
5609 5608 5606 5604 5601 5598 5595 5592 5588 5584 5580 5575 5571 5566 5561 5556 5550 5545 5541 5535 5529 5524 5519 5514 5507 5502 5497 5490 5483 5475 5469 5467 5462 5459 5456 5452 5448 5446 5443 5439 5441 5442 5445
5593 5591 5589 5586 5584 5580 5577 5573 5570 5567 5562 5558 5552 5546 5539 5533 5528 5522 5516 5510 5504 5498 5492 5486 5480 5472 5465 5460 5452 5445 5435 5430 5427 5425 5424 5422 5415 5412 5411 5410 5410 5411 5412
5577 5575 5572 5569 5566 5563 5559 5555 5551 5546 5542 5537 5531 5524 5518 5511 5504 5497 5490 5483 5474 5466 5460 5451 5445 5440 5432 5425 5420 5413 5406 5401 5395 5396 5395 5393 5390 5385 5382 5382 5384 5384 5382
5559 5556 5553 5549 5545 5542 5538 5534 5529 5524 5520 5514 5507 5501 5494 5486 5477 5469 5461 5454 5445 5435 5429 5421 5415 5412 5407 5400 5392 5387 5382 5377 5369 5367 5365 5363 5361 5360 5358 5357 5356 5355 5355
5539 5536 5533 5529 5525 5521 5517 5512 5508 5503 5498 5492 5485 5477 5470 5462 5453 5444 5436 5427 5420 5409 5402 5396 5389 5385 5382 5376 5365 5359 5356 5351 5346 5341 5339 5338 5336 5334 5333 5333 5333 5331 5330
5521 5518 5515 5512 5507 5501 5497 5492 5487 5481 5476 5469 5461 5453 5444 5435 5428 5420 5413 5404 5398 5386 5378 5372 5363 5359 5356 5353 5342 5337 5334 5330 5326 5321 5320 5319 5316 5314 5313 5312 5313 5312 5311
5505 5502 5498 5494 5489 5483 5478 5471 5465 5458 5452 5446 5436 5426 5417 5410 5403 5396 5392 5384 5374 5367 5358 5351 5343 5341 5333 5331 5326 5320 5315 5312 5309 5306 5305 5304 5301 5299 5297 5296 5295 5294 5293
Wind_Speed
41 42 41 39 38 39 39 41 40 40 41 39 37 38 38 34 34 34 37 38 32 32 32 32 31 29 29 27 25 23 22 20 18 20 21 22 23 24 25 26 27 27 25
44 42 43 41 41 43 43 44 42 42 43 40 37 38 35 34 35 36 38 32 31 32 32 32 31 28 28 28 27 24 23 22 21 22 22 23 25 26 27 28 28 27 24
45 44 43 43 43 42 44 45 44 44 43 39 35 34 34 35 37 38 34 31 33 32 32 32 29 26 26 26 26 25 24 24 24 24 24 24 25 25 27 28 28 27 25
44 44 44 44 43 44 45 44 44 45 39 35 33 34 36 37 38 36 32 33 33 32 32 32 30 27 27 27 27 27 26 25 25 25 25 26 26 27 26 27 28 27 24
44 44 43 42 43 44 44 43 42 40 36 36 36 37 38 39 39 35 34 34 34 33 33 33 31 30 29 29 30 30 30 30 29 28 28 29 29 29 29 29 29 29 27
40 40 40 41 41 40 37 37 37 37 37 38 39 39 39 38 38 35 36 36 35 35 35 35 35 35 35 34 34 34 34 34 34 34 34 34 33 32 32 31 31 31 31
32 33 34 33 33 35 37 39 39 38 39 40 40 40 39 39 36 37 38 38 38 37 36 38 40 40 39 38 38 39 39 39 40 40 41 40 40 39 37 36 35 34 34
32 32 32 34 36 39 41 41 40 40 41 42 42 40 40 38 39 39 40 41 42 40 40 42 45 46 45 45 44 44 43 43 43 44 45 45 45 45 44 42 40 39 38
37 35 36 38 40 42 42 42 42 43 43 43 43 42 41 43 43 43 43 43 44 45 45 47 48 48 48 48 47 46 45 45 46 47 48 49 49 48 47 46 46 45 43
38 39 40 42 43 43 43 43 43 43 44 44 43 44 45 46 47 46 46 47 47 48 49 50 52 53 52 51 50 50 50 51 52 53 55 55 55 54 53 51 50 49 48
40 42 44 44 45 45 44 43 43 43 45 47 48 48 48 48 50 51 51 51 51 52 54 55 56 57 56 55 55 56 57 58 58 59 60 61 61 61 60 58 57 55 53
44 45 45 46 46 46 45 46 46 47 48 50 52 54 53 53 54 54 55 55 56 58 59 60 60 60 60 62 62 63 64 64 64 64 64 64 65 65 65 65 63 61 61
44 44 45 46 47 47 48 49 51 52 54 55 56 57 58 58 59 60 60 61 62 64 64 64 64 65 66 68 68 69 69 68 68 69 69 69 70 70 69 69 68 65 64
44 45 46 48 49 51 53 54 55 56 57 58 59 60 61 62 62 62 64 66 67 68 67 68 70 71 71 72 72 73 73 73 73 72 71 71 71 71 71 69 67 66 66
48 49 51 52 54 55 56 57 59 60 61 61 61 61 63 64 64 65 66 67 68 70 71 72 73 74 75 75 75 76 75 74 74 73 72 71 70 71 70 70 68 68 67
53 55 56 57 58 58 59 59 59 59 60 61 62 62 64 65 66 67 69 70 72 73 75 76 77 78 77 77 77 76 76 75 74 74 74 74 73 72 72 72 72 71 71
59 60 60 60 60 59 59 59 60 60 60 60 62 64 66 68 70 72 73 75 76 76 77 78 78 78 78 79 79 79 78 79 79 79 80 79 78 78 78 77 77 77 76
62 62 62 60 60 60 60 59 59 61 63 65 67 69 71 72 73 73 74 75 76 77 77 78 79 81 82 83 84 84 84 85 85 85 85 85 84 84 85 84 83 83 82
62 61 59 57 57 57 59 62 64 66 69 70 71 72 71 72 73 74 75 76 78 79 81 82 83 85 85 87 88 89 90 90 89 89 89 90 90 89 90 91 90 88 87
57 57 57 59 60 62 64 66 68 69 71 71 72 73 74 75 77 79 81 83 84 84 84 85 86 87 88 88 89 90 90 91 92 91 90 90 90 90 91 93 92 91 90
58 59 60 61 63 66 67 69 70 71 72 72 73 75 77 78 79 81 82 84 85 86 88 88 89 90 90 90 90 89 89 88 88 88 87 89 91 92 92 91 91 89 87
59 60 62 64 66 67 67 67 68 71 72 73 74 76 78 80 82 84 85 86 89 91 93 94 92 88 85 83 80 80 80 81 82 80 80 80 81 83 84 84 84 82 82
60 62 64 65 66 65 66 69 71 72 73 75 78 79 81 83 86 88 90 92 92 92 91 87 84 80 77 76 77 78 78 78 80 79 79 78 78 79 79 79 80 81 82
63 64 64 63 65 69 71 73 74 76 77 80 82 84 87 88 89 91 89 86 83 80 78 77 77 76 75 73 72 71 70 70 68 67 65 63 64 64 64 62 61 61 64
64 64 64 67 70 71 73 75 77 80 82 85 86 89 90 89 85 79 75 73 72 74 74 72 70 66 63 59 62 63 64 62 61 60 58 55 54 54 54 54 54 55 57
64 66 69 70 71 73 75 77 80 84 85 87 87 83 78 73 72 73 71 69 68 63 60 57 58 55 56 53 54 54 53 50 50 50 48 45 44 43 44 44 43 44 46
Wind_Direction
257 264 269 272 274 277 279 281 284 289 293 294 294 300 300 292 297 300 302 307 309 308 310 314 317 317 319 319 313 315 317 315 314 318 321 321 318 316 313 315 314 310 306
259 264 267 270 274 277 280 283 286 288 291 292 292 297 292 291 294 298 302 302 302 303 311 314 317 318 321 320 317 314 313 312 310 312 312 312 312 311 312 312 314 311 304
258 262 267 272 277 280 282 284 286 287 288 290 291 291 287 289 292 298 299 296 299 305 310 312 313 315 318 319 317 316 315 314 313 313 312 311 310 309 309 311 314 314 307
260 266 271 276 280 279 281 282 283 282 287 286 285 283 284 287 294 298 293 297 298 302 306 307 309 308 311 313 313 313 314 313 312 312 315 315 315 314 312 312 309 310 303
262 267 273 276 277 278 280 280 281 283 282 280 279 281 285 288 294 291 288 291 294 298 302 303 304 305 306 307 307 308 306 307 307 310 312 313 313 313 312 311 309 306 303
266 270 270 272 275 277 279 280 280 282 280 280 281 283 288 293 294 289 290 290 291 295 298 299 301 303 303 303 302 303 304 303 302 302 305 306 308 309 309 307 304 303 303
267 269 267 269 273 277 278 278 279 279 279 280 282 286 290 289 285 285 286 288 290 292 295 297 299 299 299 298 298 298 299 299 297 297 298 300 302 304 304 303 303 300 297
271 273 273 273 275 275 276 278 278 279 280 283 285 287 285 282 283 283 284 285 288 290 293 295 297 297 296 296 296 296 296 296 296 295 294 295 296 298 299 298 297 295 294
270 274 276 274 272 273 275 277 279 281 282 283 284 283 283 283 283 284 286 288 290 293 294 294 294 293 292 292 293 293 294 294 293 292 292 291 292 292 292 292 292 291 289
266 270 272 271 271 272 274 276 279 281 281 281 281 281 283 285 286 285 285 286 288 291 292 291 291 292 291 292 293 293 293 292 292 292 291 291 290 290 289 288 286 285 284
269 271 272 273 274 275 277 279 279 281 281 280 281 282 282 282 284 285 287 289 291 291 290 290 290 290 289 290 291 292 291 291 290 289 290 289 288 288 287 286 284 281 279
267 269 270 272 274 278 281 282 282 283 282 282 281 281 282 284 285 286 287 289 289 288 288 288 288 288 288 289 290 290 290 290 289 288 287 286 285 284 283 281 280 279 278
267 271 273 275 278 279 280 280 280 280 279 280 281 282 283 284 285 286 288 288 288 288 288 287 286 287 287 288 288 288 288 287 287 286 285 284 283 282 281 281 280 280 279
271 272 274 276 277 279 280 280 281 281 281 282 283 283 284 285 287 288 288 288 288 287 286 286 286 286 287 287 287 288 287 287 286 284 283 282 282 281 281 280 279 278 277
273 275 276 277 278 278 279 280 281 281 281 282 284 285 287 289 289 288 287 286 286 285 285 285 286 286 286 286 285 285 285 284 284 283 282 281 279 279 279 279 277 276 275
274 276 277 279 280 282 282 282 283 284 285 286 287 287 287 286 286 285 284 284 285 286 286 287 286 285 286 286 285 284 284 283 283 282 281 281 280 279 278 277 276 275 273
280 280 281 282 282 283 284 284 285 286 287 287 286 285 284 284 284 284 285 286 286 286 285 285 285 285 285 284 284 284 284 284 284 283 282 281 280 279 277 275 274 273 272
280 280 280 282 283 283 283 283 284 285 285 285 285 285 285 285 285 285 285 285 284 284 285 285 286 286 287 287 287 286 285 284 283 282 280 278 277 276 275 273 272 272 270
282 281 280 280 280 282 283 284 285 285 284 284 284 284 284 284 284 284 284 284 284 284 284 285 286 286 286 285 285 283 282 281 280 278 277 276 275 274 272 271 270 268 267
281 279 278 279 280 282 282 283 283 284 284 284 285 285 285 285 284 284 284 284 284 285 286 287 286 285 285 284 284 283 282 281 279 277 276 274 272 270 269 268 268 268 267
278 278 279 280 280 281 281 282 282 282 282 282 283 283 283 284 285 286 287 288 289 289 288 288 288 289 288 287 285 283 280 278 276 274 271 268 269 269 268 269 269 270 270
276 277 278 279 280 281 282 282 282 282 283 285 287 288 289 290 291 291 291 291 292 293 294 294 293 292 289 286 284 283 281 281 280 278 277 275 273 273 273 272 272 271 271
279 281 281 282 283 284 284 286 288 289 290 291 292 292 292 292 293 295 296 297 297 296 295 293 291 289 288 287 285 283 281 281 281 280 278 276 275 273 272 273 272 271 270
284 285 286 286 287 288 289 290 291 292 293 293 294 294 295 296 296 297 297 296 295 293 292 291 290 289 289 288 287 286 285 284 284 284 284 283 281 279 277 275 274 273 273
286 285 286 288 289 290 291 292 293 293 294 295 296 297 298 298 298 296 296 294 293 293 293 293 293 293 291 290 288 288 288 286 286 285 286 286 286 283 280 277 276 274 272
282 285 288 288 289 290 292 293 294 295 297 298 299 299 299 298 298 297 296 296 296 296 296 296 297 297 297 295 292 290 289 288 287 288 289 287 286 285 282 279 278 277 276